FENGYUN 1C DEB

Satellite information

Favourite Embed

Satellite Type and Status

DEBRISIN ORBIT

Key statistics

Satellite FENGYUN 1C DEB at a glance.

Uptime

9664

Days in orbit

Revolutions

≈ 14.2

Per day

Orbit

SSO

Sun Synchronous Orbit

Inclination

98.7

Latest

Satellite identification and parameters

Extended collection of information and parameters for FENGYUN 1C DEB.

Object identification

Identified? True

Debris? True

Object name: FENGYUN 1C DEB

International designator: 1999-025EYN

Object number (NORAD): 43214

Object ID (CCSDS): 43214

Country: PEOPLES REPUBLIC OF CHINA (PRC)

Current information (Y/N): Y

RCS size: SMALL

Orbital parameters

Period: 101.15 minutes

Inclination: 98.7398 deg

SMA: 7191.244 km

Apoapsis: 851.71 km

Periapsis: 774.508 km

RAAN: 0.1787 deg

Eccentricy: 0.00536777

Argument of periapsis: 18.934 deg

Mean anomaly: 341.3818 deg

Mean motion: 14.23628651 rev/day

Mean motion (dot): 0.00004231 rev/day2

B* drag term: 0.0018469793 1/REarth

Two-line elements (TLE)

Creation date: Oct. 22, 2025, 5:40 p.m.

Reference frame: TEME

Reference center: EARTH

Epoch: Oct. 22, 2025, 3:20 a.m. UTC

TLE line 0: 0 FENGYUN 1C DEB

TLE line 1: 1 43214U 99025EYN 25295.13949028 .00004231 00000-0 18470-2 0 9990

TLE line 2: 2 43214 98.7398 0.1787 0053678 18.9340 341.3818 14.23628651396696

Live tracking on map

Real-time ground track for satellite FENGYUN 1C DEB.

In-orbit conjunctions

A list of the most updated potential collisions computed for object FENGYUN 1C DEB.

Target Orbit TCA Probability of collision Miss distance Type
CZ-6A DEB LEO 2025-03-02 20:37:30 0.0004041755 275.0 (m) DEBRIS
OSCAR 17 (DOVE) SSO 2024-09-18 02:13:16 0.0003298555 335.0 (m) PAYLOAD
THOR BURNER 2 R/B SSO 2024-07-29 11:48:40 0.0001351956 233.0 (m) ROCKET BODY

Associated space launch

Chinese polar orbiting meteorological satellite

FENGYUN 1C DEB was lifted into orbit during the mission ‘Long March 4B | Feng Yun 1C’, on board a Long March 4B space rocket.

The launch took place on May 10, 1999, 1:33 a.m. from Launch Complex 7.

For more information about the launch, click the button.

Launch to space Long March 4B | Feng Yun 1C
Long March 4B | Feng Yun 1C

Agency: N/A

Status: Launch Successful

Launch date: May 10, 1999, 1:33 a.m. UTC

Rocket: Long March 4B

Launch pad: Launch Complex 7

Location: Taiyuan Satellite Launch Center, People's Republic of China

...

Latest news about this satellite

There are no fresh news available about this satellite. Check back as we update our databases every day.


Newsletter sign-up

Weekly statistics, charts and insights to help you stay on top of the space industry.